Location: Handeloh
(53.2500°N, 9.8330°E)
Time: 09:38:40
(UTC+01:00)

S-56A Canister/Altair - Pass Details

Date: 26 November 2019
Orbit: 633 x 2500 km, 38.9° (Epoch: 09 December)

Event Time Altitude Azimuth Distance (km) Brightness Sun altitude
Rises 14:33:24 0° 218° (SW) 6,017 14.5 9.4°
Reaches altitude 10° 14:38:26 10° 208° (SSW) 4,820 14.3 9.0°
Maximum altitude 14:48:18 26° 159° (SSE) 3,139 11.2 8.1°
Drops below altitude 10° 14:55:57 10° 108° (ESE) 3,675 10.8 7.4°
Sets 14:59:09 0° 96° (E) 4,380 11.1 7.1°
